CZ-6A DEB, 54354

Orbit data source: Space-Track

CZ-6A DEB, 54354 is space debris in SSO originally from a launch on Fri, 11 Nov 2022 UTC launched from the Taiyaun Space Center, China (TSC). Debris objects in space refer to the collection of defunct objects orbiting the Earth. Examples of debris include non-operational satellites, rocket bodies, and fragments generated from explosions, collisions, or faulty payload assembly.

Loading next visibility...
Identifier
54354, 2022-151CZ
Orbit
SSO
Country
Flag of CNCN / PRC
Related business
Manufacturer
SAST
Mission
Spacecraft
Bus & Motor
Unknown
Mass
Unknown
Launch date (UTC)
2022-11-11 (4 years ago)
Launch vehicle
Unknown
Launch site
Taiyaun Space Center, China (TSC)
Object type
Payload
Rocket body
Debris
Shape & HBR
Unknown shape, 0.1 m
Radar Cross Section
Small (<0.1 m²)

Expand to show TLE details & history
Last TLE update: 2 days ago

TLE from 2 days ago
0 CZ-6A DEB
1 54354U 22151CZ  26171.18533503  .00009632  00000-0  12350-2 0  9990
2 54354  98.7149 260.8798 0098101 273.1662  85.8326 14.78136443190763
Epoch: 2026-06-20T04:26Z
TLE epoch observation values (Epoch: 2026-06-20T04:26:52.946Z)
Latitude
-0.00002°
Longitude
-74.24439°
Altitude
633.877 km
Speed
7.544 km/s
True Right ascension
17h 23m 31s
True Declination
0° 00' 00"
Sunlit
Object was in full shadow at epoch
Visualization orbit readout
Latitude
Unknown
Longitude
Unknown
Altitude
Unknown
Speed
Unknown
Apparent Right ascension
Unknown
Apparent Declination
Unknown
Sunlit
N/A
Visualization observer readout
Local Sidereal Time
21:33:47
Azimuth
Unknown
Elevation
Unknown
Doppler factor
Unknown
Orbital elements
Apogee altitude
701.067 km
Perigee altitude
563.521 km
Semi-major axis
7,010.431 km
Eccentricity
0.00981
Inclination
98.7149°
RAAN
260.8798°
Arg. of periapsis
273.1662°
True anomaly
86.95471°
Mean anomaly
85.8326°
Eccentric anomaly
86.39356°
Mean motion
3.69765 °/min
Orbital period
97.36 mins
BSTAR
0.001235
Loading maneuver chart data...
Computing Atmospheric mass density...
Loading historical data...
Loading historical data...
Loading historical data...
Loading historical data...
Loading historical data...
Loading historical data...
Loading historical data...

Documentation

Showing up to 5 results
|